ROMMA est une association bénévole à but non lucratif. Votre soutien est indispensable : ADHERER à ROMMA ou FAIRE un DON

Die - (26, Drôme)

Diois (400 m)   Longitude: 5° 21' 55"E   Latitude: 44° 45' 16"N Station partenaire n°159
 

Détail journalier du     <<     >>

Température Precipitation Humidité Pression Vent Dir Rafale Dir. rafale Ensol.
Heure (°C) (mm) (%) (hPa) (km/h) (km/h) (min)
01:00 5.60.28710284NNO16NNO0
02:00 7.207510285NO18NO0
03:00 6.807310286NNO26NNO0
04:00 6.807010297NO21NO0
05:00 6.406710286NO18NO0
06:00 5.906610286ONO23NNO0
07:00 5.706510289ONO24ONO0
08:00 5.206410286NO18NO0
09:00 5.206510286NO15N0
10:00 6.306210288NNO21NNO60
11:00 6.806210289N24NO60
12:00 8.2059102810NO21NNO60
13:00 8.405710279NNO24NNO60
14:00 8.305610267N24ENE60
15:00 8.405510258NO21NNE50
16:00 6.906210253NO16NO10
17:00 4.307510241SSO10N0
18:00 2.308110241ONO5ONO0
19:00 0.7086102503ONO0
20:00 -0.3090102503ONO0
21:00 -1.209010251ONO3ONO0
22:00 -1.909210251ONO3ONO0
23:00 -2.5092102603ONO0
minuit -2.9093102603ONO0

Graphique du 18-01-2020

 

Serveur OMMA